STARLINK-33886, 63681

Orbit data source: Space-Track

STARLINK-33886, 63681 is a payload satellite owned by SpaceX/Seattle (US) in LEO that was launched on Mon, 28 Apr 2025 UTC via an FALCON 9 launch vehicle from the Air Force Eastern Test Range (AFETR). Payload-class satellites include a variety of spacecraft equipped with specific instruments for various scientific and technological missions. These include communications satellites like Starlink; space stations such as the ISS; scientific satellites like the Hubble; Earth observation satellites from companies like Planet Labs, Umbra, and HawkEye 360; GPS; miniature CubeSats for education and research; and military/defense satellites.

Loading next visibility...
Identifier
63681, 2025-085T
Orbit
LEO
Country
Flag of USUS
Related business
Manufacturer
SpaceX/Seattle
Mission
Operational Commercial Communications
Bus & Motor
STARLINK V2MO, Unknown motor
Mass
575 kg wet, ~530 kg dry
Launch date (UTC)
2025-04-28 (1 year ago)
Launch vehicle
FALCON 9
Launch site
Air Force Eastern Test Range (AFETR)
Object type
Payload
Rocket body
Debris
Shape & HBR
Box + 2 Pan, 17.7 m
Radar Cross Section
36.964 m², Large (>1 m²)

Expand to show TLE details & history
Last TLE update: 19 hours ago

TLE from 19 hours ago
0 STARLINK-33886
1 63681U 25085T   26171.07139013  .00013863  00000-0  51213-3 0  9991
2 63681  43.0007 172.2166 0001304 240.9728 119.0993 15.27592929 64536
Epoch: 2026-06-20T01:42Z
TLE epoch observation values (Epoch: 2026-06-20T01:42:48.107Z)
Latitude
-0.00001°
Longitude
-121.77514°
Altitude
483.221 km
Speed
7.625 km/s
True Right ascension
11h 28m 51s
True Declination
0° 00' 00"
Sunlit
Object was in daylight at epoch
Visualization orbit readout
Latitude
Unknown
Longitude
Unknown
Altitude
Unknown
Speed
Unknown
Apparent Right ascension
Unknown
Apparent Declination
Unknown
Sunlit
N/A
Visualization observer readout
Local Sidereal Time
07:18:17
Azimuth
Unknown
Elevation
Unknown
Doppler factor
Unknown
Orbital elements
Apogee altitude
485.85 km
Perigee altitude
484.061 km
Semi-major axis
6,863.092 km
Eccentricity
0.00013
Inclination
43.0007°
RAAN
172.2166°
Arg. of periapsis
240.9728°
True anomaly
119.11236°
Mean anomaly
119.0993°
Eccentric anomaly
119.10583°
Mean motion
3.81736 °/min
Orbital period
94.31 mins
BSTAR
0.00051213
Loading maneuver chart data...
Computing Atmospheric mass density...
Loading historical data...
Loading historical data...
Loading historical data...
Loading historical data...
Loading historical data...
Loading historical data...
Loading historical data...

Documentation

Showing up to 5 results
|